Weather History for Paducah, KY

Change the Weather History Date:

Sunday, February 17, 2013

  Actual Average Record
Temperature  
Mean Temperature 34 °F 40 °F  
Max Temperature 47 °F 50 °F 70 °F (1986)
Min Temperature 20 °F 30 °F -5 °F (1958)
Degree Days  
Heating Degree Days 31 25  
Month to date heating degree days 441 465  
Since 1 July heating degree days 2814 3038  
Cooling Degree Days 0 0  
Month to date cooling degree days 0 0  
Year to date cooling degree days 0 0  
Moisture  
Dew Point 20 °F    
Average Humidity 59    
Maximum Humidity 84    
Minimum Humidity 34    
Precipitation  
Precipitation 0.00 in 0.13 in 2.88 in (1976)
Month to date precipitation 1.14 2.38  
Year to date precipitation 9.19 6.06  
Snow  
Snow 0.00 in 0.10 in 1.60 in (1987)
Month to date snowfall T 2.1  
Since 1 July snowfall 6.1 7.4  
Snow Depth 0.00 in    
Sea Level Pressure  
Sea Level Pressure 30.17 in    
Wind  
Wind Speed 5 mph (South)    
Max Wind Speed 14 mph    
Max Gust Speed 20 mph    
Visibility 10 miles    
Events      
T = Trace of Precipitation, MM = Missing Value Source: NWS Daily Summary

Daily Weather History Graph

Daily Weather History Graph

Search for Another Location

Airport:

Trip Planner

Search our weather history database for the weather conditions in past years. The results will help you decide how hot, cold, wet, or windy it might be!

Date:

Astronomy

Feb. 17, 2013 Rise Set
Actual Time 6:41 AM CST 5:37 PM CST
Civil Twilight 6:14 AM CST 6:04 PM CST
Nautical Twilight 5:44 AM CST 6:34 PM CST
Astronomical Twilight 5:14 AM CST 7:04 PM CST
Moon 10:45 AM CST (2/17) 12:22 AM CST (2/17)
Length of Visible Light 11h 49m
Length of Day
10h 56m
Waxing Crescent, 49% of the Moon is Illuminated
Feb 17
Waxing Crescent
Feb 17
First Quarter
Feb 25
Full
Mar 4
Last Quarter
Mar 11
New

Hourly Weather History & Observations

Time (CST) Temp. Windchill Dew Point Humidity Pressure Visibility Wind Dir Wind Speed Gust Speed Precip Events Conditions
12:53 AM 24.1 °F 17.0 °F 12.9 °F 62% 30.21 in 10.0 mi SW 5.8 mph - N/A   Clear
1:53 AM 23.0 °F 15.8 °F 14.0 °F 68% 30.20 in 10.0 mi WSW 5.8 mph - N/A   Clear
2:53 AM 23.0 °F - 15.1 °F 72% 30.20 in 10.0 mi Calm Calm - N/A   Clear
3:53 AM 19.9 °F - 15.1 °F 81% 30.21 in 10.0 mi Calm Calm - N/A   Clear
4:53 AM 21.0 °F - 15.1 °F 78% 30.22 in 10.0 mi Calm Calm - N/A   Clear
5:53 AM 21.2 °F - 17.6 °F 86% 30.21 in 10.0 mi Calm Calm - N/A   Overcast
6:53 AM 23.0 °F - 18.0 °F 81% 30.23 in 10.0 mi Calm Calm - N/A   Overcast
7:53 AM 27.0 °F - 21.0 °F 78% 30.25 in 10.0 mi Calm Calm - N/A   Overcast
8:53 AM 32.0 °F - 25.0 °F 75% 30.26 in 10.0 mi Calm Calm - N/A   Overcast
9:53 AM 36.0 °F - 25.0 °F 64% 30.25 in 10.0 mi Calm Calm - N/A   Overcast
10:53 AM 39.9 °F 35.8 °F 25.0 °F 55% 30.25 in 10.0 mi South 5.8 mph - N/A   Overcast
11:53 AM 42.1 °F 37.7 °F 19.9 °F 41% 30.22 in 10.0 mi SSW 6.9 mph - N/A   Overcast
12:53 PM 44.1 °F 39.0 °F 19.9 °F 38% 30.19 in 10.0 mi SW 9.2 mph 16.1 mph N/A   Overcast
1:53 PM 45.0 °F 39.7 °F 21.0 °F 39% 30.17 in 10.0 mi South 10.4 mph - N/A   Overcast
2:53 PM 46.0 °F 40.2 °F 19.9 °F 35% 30.14 in 10.0 mi South 12.7 mph - N/A   Mostly Cloudy
3:53 PM 46.9 °F - 21.0 °F 36% 30.13 in 10.0 mi South 9.2 mph - N/A   Clear
4:53 PM 46.0 °F 41.9 °F 19.9 °F 35% 30.12 in 10.0 mi South 8.1 mph - N/A   Clear
5:53 PM 41.0 °F 37.1 °F 21.9 °F 47% 30.10 in 10.0 mi SE 5.8 mph - N/A   Clear
6:53 PM 39.0 °F 34.8 °F 21.9 °F 50% 30.10 in 10.0 mi SE 5.8 mph - N/A   Clear
7:53 PM 37.9 °F 34.4 °F 21.0 °F 51% 30.11 in 10.0 mi SE 4.6 mph - N/A   Clear
8:53 PM 37.9 °F 32.7 °F 21.9 °F 53% 30.10 in 10.0 mi SSE 6.9 mph - N/A   Clear
9:53 PM 39.0 °F 32.8 °F 21.9 °F 50% 30.09 in 10.0 mi SSE 9.2 mph - N/A   Clear
11:53 PM 37.0 °F 31.0 °F 23.0 °F 57% 30.06 in 10.0 mi SSE 8.1 mph - N/A   Clear